Gallup, NM

4:40 PM MDT on June 25, 2017 (GMT -0600)
Gallup Municipal

Weather History for KGUP - October, 2013

Change the Weather History Date:

Tuesday, October 1, 2013

  Actual Average Record
Temperature  
Mean Temperature 54 °F -  
Max Temperature 78 °F 72 °F 87 °F (1980)
Min Temperature 32 °F 35 °F 25 °F (1993)
Degree Days  
Heating Degree Days 10    
Growing Degree Days 4 (Base 50)    
Moisture  
Dew Point 19 °F    
Average Humidity 31    
Maximum Humidity 61    
Minimum Humidity 9    
Precipitation  
Precipitation 0.00 in - - ()
Sea Level Pressure  
Sea Level Pressure 29.89 in    
Wind  
Wind Speed 4 mph (SW)    
Max Wind Speed 13 mph    
Max Gust Speed 24 mph    
Visibility 10 miles    
Events      
Averages and records for this station are not official NWS values.
T = Trace of Precipitation, MM = Missing Value Source: NWS Daily Summary

Daily Weather History Graph

Daily Weather History Graph

Search for Another Location

Airport or City:

Trip Planner

Search our weather history database for the weather conditions in past years. The results will help you decide how hot, cold, wet, or windy it might be!

Date:

Astronomy

Oct. 01, 2013 Rise Set
Actual Time 7:10 AM MDT 6:58 PM MDT
Civil Twilight 6:44 AM MDT 7:23 PM MDT
Nautical Twilight 6:15 AM MDT 7:53 PM MDT
Astronomical Twilight 5:45 AM MDT 8:23 PM MDT
Moon 3:53 AM MDT (10/1) 4:59 PM MDT (10/1)
Length of Visible Light 12h 38m
Length of Day
11h 48m
Waning Crescent, 11% of the Moon is Illuminated
Oct 1
Waning Crescent
Oct 4
New
Oct 11
First Quarter
Oct 18
Full
Oct 26
Last Quarter

Hourly Weather History & Observations

Time (MDT) Temp. Windchill Dew Point Humidity Pressure Visibility Wind Dir Wind Speed Gust Speed Precip Events Conditions
12:53 AM 43.0 °F 41.3 °F 19.9 °F 40% 29.84 in 10.0 mi ENE 3.5 mph - N/A   Clear
1:53 AM 37.0 °F - 19.0 °F 48% 29.87 in 10.0 mi Calm Calm - N/A   Clear
2:53 AM 36.0 °F 33.3 °F 16.0 °F 44% 29.87 in 10.0 mi ENE 3.5 mph - N/A   Clear
3:53 AM 37.9 °F 35.5 °F 21.9 °F 53% 29.85 in 10.0 mi ENE 3.5 mph - N/A   Clear
4:53 AM 32.0 °F 27.5 °F 17.1 °F 54% 29.89 in 10.0 mi ENE 4.6 mph - N/A   Clear
5:53 AM 36.0 °F - 21.9 °F 57% 29.88 in 10.0 mi Calm Calm - N/A   Clear
6:53 AM 34.0 °F - 21.9 °F 61% 29.95 in 10.0 mi Calm Calm - N/A   Clear
7:53 AM 35.1 °F - 19.9 °F 54% 30.01 in 10.0 mi Calm Calm - N/A   Clear
8:53 AM 48.9 °F - 25.0 °F 39% 29.94 in 10.0 mi NE 3.5 mph - N/A   Clear
9:53 AM 55.0 °F - 25.0 °F 31% 29.98 in 10.0 mi Calm Calm - N/A   Clear
10:53 AM 64.0 °F - 27.0 °F 25% 29.96 in 10.0 mi WSW 4.6 mph - N/A   Clear
11:53 AM 68.0 °F - 25.0 °F 20% 29.89 in 10.0 mi WSW 6.9 mph - N/A   Clear
12:53 PM 72.0 °F - 24.1 °F 17% 29.86 in 10.0 mi SSW 11.5 mph 18.4 mph N/A   Clear
1:53 PM 75.0 °F - 24.1 °F 15% 29.86 in 10.0 mi SW 10.4 mph 20.7 mph N/A   Clear
2:53 PM 73.9 °F - 21.9 °F 14% 29.85 in 10.0 mi SW 10.4 mph 24.2 mph N/A   Clear
3:53 PM 75.9 °F - 19.9 °F 12% 29.81 in 10.0 mi Variable 5.8 mph 19.6 mph N/A   Clear
4:53 PM 77.0 °F - 14.0 °F 9% 29.83 in 10.0 mi West 10.4 mph - N/A   Clear
5:53 PM 75.0 °F - 14.0 °F 10% 29.82 in 10.0 mi West 12.7 mph - N/A   Clear
6:53 PM 68.0 °F - 12.0 °F 11% 29.89 in 10.0 mi SW 6.9 mph - N/A   Clear
7:53 PM 57.9 °F - 14.0 °F 18% 29.96 in 10.0 mi SW 4.6 mph - N/A   Clear
8:53 PM 48.9 °F - 12.0 °F 23% 29.95 in 10.0 mi NE 3.5 mph - N/A   Clear
9:53 PM 45.0 °F 42.6 °F 12.9 °F 27% 29.94 in 10.0 mi NE 4.6 mph - N/A   Clear
10:53 PM 46.0 °F - 14.0 °F 28% 29.88 in 10.0 mi Calm Calm - N/A   Clear
11:53 PM 42.1 °F 39.2 °F 12.9 °F 31% 29.89 in 10.0 mi ENE 4.6 mph - N/A   Clear